Date AST Hour Ending, MW ,,,,,,,,,,,,,,,,,
4/1/2014 1:00,477,,,,,,,,,,,,,,,,,
4/1/2014 2:00,431,,,,,,,,,,,,,,,,,
4/1/2014 3:00,424,,,,,,,,,,,,,,,,,
4/1/2014 4:00,435,,,,,,,,,,,,,,,,,
4/1/2014 5:00,503,,,,,,,,,,,,,,,,,
4/1/2014 6:00,541,,,,,,,,,,,,,,,,,
4/1/2014 7:00,621,,,,,,,,,,,,,,,,,
4/1/2014 8:00,677,,,,,,,,,,,,,,,,,
4/1/2014 9:00,723,,,,,,,,,,,,,,,,,
4/1/2014 10:00,757,,,,,,,,,,,,,,,,,
4/1/2014 11:00,752,,,,,,,,,,,,,,,,,
4/1/2014 12:00,760,,,,,,,,,,,,,,,,,
4/1/2014 13:00,744,,,,,,,,,,,,,,,,,
4/1/2014 14:00,721,,,,,,,,,,,,,,,,,
4/1/2014 15:00,742,,,,,,,,,,,,,,,,,
4/1/2014 16:00,695,,,,,,,,,,,,,,,,,
4/1/2014 17:00,695,,,,,,,,,,,,,,,,,
4/1/2014 18:00,736,,,,,,,,,,,,,,,,,
4/1/2014 19:00,716,,,,,,,,,,,,,,,,,
4/1/2014 20:00,711,,,,,,,,,,,,,,,,,
4/1/2014 21:00,684,,,,,,,,,,,,,,,,,
4/1/2014 22:00,633,,,,,,,,,,,,,,,,,
4/1/2014 23:00,583,,,,,,,,,,,,,,,,,
4/2/2014 0:00,546,,,,,,,,,,,,,,,,,
4/2/2014 1:00,506,,,,,,,,,,,,,,,,,
4/2/2014 2:00,492,,,,,,,,,,,,,,,,,
4/2/2014 3:00,421,,,,,,,,,,,,,,,,,
4/2/2014 4:00,367,,,,,,,,,,,,,,,,,
4/2/2014 5:00,357,,,,,,,,,,,,,,,,,
4/2/2014 6:00,408,,,,,,,,,,,,,,,,,
4/2/2014 7:00,577,,,,,,,,,,,,,,,,,
4/2/2014 8:00,740,,,,,,,,,,,,,,,,,
4/2/2014 9:00,770,,,,,,,,,,,,,,,,,
4/2/2014 10:00,747,,,,,,,,,,,,,,,,,
4/2/2014 11:00,728,,,,,,,,,,,,,,,,,
4/2/2014 12:00,695,,,,,,,,,,,,,,,,,
4/2/2014 13:00,646,,,,,,,,,,,,,,,,,
4/2/2014 14:00,585,,,,,,,,,,,,,,,,,
4/2/2014 15:00,554,,,,,,,,,,,,,,,,,
4/2/2014 16:00,545,,,,,,,,,,,,,,,,,
4/2/2014 17:00,640,,,,,,,,,,,,,,,,,
4/2/2014 18:00,642,,,,,,,,,,,,,,,,,
4/2/2014 19:00,645,,,,,,,,,,,,,,,,,
4/2/2014 20:00,656,,,,,,,,,,,,,,,,,
4/2/2014 21:00,685,,,,,,,,,,,,,,,,,
4/2/2014 22:00,650,,,,,,,,,,,,,,,,,
4/2/2014 23:00,603,,,,,,,,,,,,,,,,,
4/3/2014 0:00,555,,,,,,,,,,,,,,,,,
4/3/2014 1:00,526,,,,,,,,,,,,,,,,,
4/3/2014 2:00,509,,,,,,,,,,,,,,,,,
4/3/2014 3:00,468,,,,,,,,,,,,,,,,,
4/3/2014 4:00,452,,,,,,,,,,,,,,,,,
4/3/2014 5:00,450,,,,,,,,,,,,,,,,,
4/3/2014 6:00,466,,,,,,,,,,,,,,,,,
4/3/2014 7:00,600,,,,,,,,,,,,,,,,,
4/3/2014 8:00,643,,,,,,,,,,,,,,,,,
4/3/2014 9:00,679,,,,,,,,,,,,,,,,,
4/3/2014 10:00,668,,,,,,,,,,,,,,,,,
4/3/2014 11:00,664,,,,,,,,,,,,,,,,,
4/3/2014 12:00,663,,,,,,,,,,,,,,,,,
4/3/2014 13:00,627,,,,,,,,,,,,,,,,,
4/3/2014 14:00,577,,,,,,,,,,,,,,,,,
4/3/2014 15:00,567,,,,,,,,,,,,,,,,,
4/3/2014 16:00,584,,,,,,,,,,,,,,,,,
4/3/2014 17:00,629,,,,,,,,,,,,,,,,,
4/3/2014 18:00,631,,,,,,,,,,,,,,,,,
4/3/2014 19:00,634,,,,,,,,,,,,,,,,,
4/3/2014 20:00,645,,,,,,,,,,,,,,,,,
4/3/2014 21:00,654,,,,,,,,,,,,,,,,,
4/3/2014 22:00,614,,,,,,,,,,,,,,,,,
4/3/2014 23:00,544,,,,,,,,,,,,,,,,,
4/4/2014 0:00,529,,,,,,,,,,,,,,,,,
4/4/2014 1:00,480,,,,,,,,,,,,,,,,,
4/4/2014 2:00,463,,,,,,,,,,,,,,,,,
4/4/2014 3:00,445,,,,,,,,,,,,,,,,,
4/4/2014 4:00,418,,,,,,,,,,,,,,,,,
4/4/2014 5:00,433,,,,,,,,,,,,,,,,,
4/4/2014 6:00,485,,,,,,,,,,,,,,,,,
4/4/2014 7:00,553,,,,,,,,,,,,,,,,,
4/4/2014 8:00,648,,,,,,,,,,,,,,,,,
4/4/2014 9:00,656,,,,,,,,,,,,,,,,,
4/4/2014 10:00,631,,,,,,,,,,,,,,,,,
4/4/2014 11:00,601,,,,,,,,,,,,,,,,,
4/4/2014 12:00,579,,,,,,,,,,,,,,,,,
4/4/2014 13:00,552,,,,,,,,,,,,,,,,,
4/4/2014 14:00,519,,,,,,,,,,,,,,,,,
4/4/2014 15:00,489,,,,,,,,,,,,,,,,,
4/4/2014 16:00,475,,,,,,,,,,,,,,,,,
4/4/2014 17:00,508,,,,,,,,,,,,,,,,,
4/4/2014 18:00,486,,,,,,,,,,,,,,,,,
4/4/2014 19:00,482,,,,,,,,,,,,,,,,,
4/4/2014 20:00,488,,,,,,,,,,,,,,,,,
4/4/2014 21:00,526,,,,,,,,,,,,,,,,,
4/4/2014 22:00,532,,,,,,,,,,,,,,,,,
4/4/2014 23:00,493,,,,,,,,,,,,,,,,,
4/5/2014 0:00,447,,,,,,,,,,,,,,,,,
4/5/2014 1:00,413,,,,,,,,,,,,,,,,,
4/5/2014 2:00,340,,,,,,,,,,,,,,,,,
4/5/2014 3:00,330,,,,,,,,,,,,,,,,,
4/5/2014 4:00,321,,,,,,,,,,,,,,,,,
4/5/2014 5:00,319,,,,,,,,,,,,,,,,,
4/5/2014 6:00,325,,,,,,,,,,,,,,,,,
4/5/2014 7:00,337,,,,,,,,,,,,,,,,,
4/5/2014 8:00,393,,,,,,,,,,,,,,,,,
4/5/2014 9:00,484,,,,,,,,,,,,,,,,,
4/5/2014 10:00,496,,,,,,,,,,,,,,,,,
4/5/2014 11:00,481,,,,,,,,,,,,,,,,,
4/5/2014 12:00,494,,,,,,,,,,,,,,,,,
4/5/2014 13:00,509,,,,,,,,,,,,,,,,,
4/5/2014 14:00,512,,,,,,,,,,,,,,,,,
4/5/2014 15:00,518,,,,,,,,,,,,,,,,,
4/5/2014 16:00,505,,,,,,,,,,,,,,,,,
4/5/2014 17:00,507,,,,,,,,,,,,,,,,,
4/5/2014 18:00,504,,,,,,,,,,,,,,,,,
4/5/2014 19:00,453,,,,,,,,,,,,,,,,,
4/5/2014 20:00,454,,,,,,,,,,,,,,,,,
4/5/2014 21:00,498,,,,,,,,,,,,,,,,,
4/5/2014 22:00,513,,,,,,,,,,,,,,,,,
4/5/2014 23:00,373,,,,,,,,,,,,,,,,,
4/6/2014 0:00,365,,,,,,,,,,,,,,,,,
4/6/2014 1:00,385,,,,,,,,,,,,,,,,,
4/6/2014 2:00,368,,,,,,,,,,,,,,,,,
4/6/2014 3:00,337,,,,,,,,,,,,,,,,,
4/6/2014 4:00,347,,,,,,,,,,,,,,,,,
4/6/2014 5:00,338,,,,,,,,,,,,,,,,,
4/6/2014 6:00,351,,,,,,,,,,,,,,,,,
4/6/2014 7:00,353,,,,,,,,,,,,,,,,,
4/6/2014 8:00,422,,,,,,,,,,,,,,,,,
4/6/2014 9:00,444,,,,,,,,,,,,,,,,,
4/6/2014 10:00,483,,,,,,,,,,,,,,,,,
4/6/2014 11:00,518,,,,,,,,,,,,,,,,,
4/6/2014 12:00,478,,,,,,,,,,,,,,,,,
4/6/2014 13:00,450,,,,,,,,,,,,,,,,,
4/6/2014 14:00,407,,,,,,,,,,,,,,,,,
4/6/2014 15:00,376,,,,,,,,,,,,,,,,,
4/6/2014 16:00,354,,,,,,,,,,,,,,,,,
4/6/2014 17:00,347,,,,,,,,,,,,,,,,,
4/6/2014 18:00,351,,,,,,,,,,,,,,,,,
4/6/2014 19:00,335,,,,,,,,,,,,,,,,,
4/6/2014 20:00,378,,,,,,,,,,,,,,,,,
4/6/2014 21:00,547,,,,,,,,,,,,,,,,,
4/6/2014 22:00,512,,,,,,,,,,,,,,,,,
4/6/2014 23:00,414,,,,,,,,,,,,,,,,,
4/7/2014 0:00,344,,,,,,,,,,,,,,,,,
4/7/2014 1:00,321,,,,,,,,,,,,,,,,,
4/7/2014 2:00,264,,,,,,,,,,,,,,,,,
4/7/2014 3:00,245,,,,,,,,,,,,,,,,,
4/7/2014 4:00,258,,,,,,,,,,,,,,,,,
4/7/2014 5:00,259,,,,,,,,,,,,,,,,,
4/7/2014 6:00,320,,,,,,,,,,,,,,,,,
4/7/2014 7:00,385,,,,,,,,,,,,,,,,,
4/7/2014 8:00,479,,,,,,,,,,,,,,,,,
4/7/2014 9:00,463,,,,,,,,,,,,,,,,,
4/7/2014 10:00,429,,,,,,,,,,,,,,,,,
4/7/2014 11:00,495,,,,,,,,,,,,,,,,,
4/7/2014 12:00,516,,,,,,,,,,,,,,,,,
4/7/2014 13:00,513,,,,,,,,,,,,,,,,,
4/7/2014 14:00,536,,,,,,,,,,,,,,,,,
4/7/2014 15:00,550,,,,,,,,,,,,,,,,,
4/7/2014 16:00,579,,,,,,,,,,,,,,,,,
4/7/2014 17:00,575,,,,,,,,,,,,,,,,,
4/7/2014 18:00,569,,,,,,,,,,,,,,,,,
4/7/2014 19:00,538,,,,,,,,,,,,,,,,,
4/7/2014 20:00,550,,,,,,,,,,,,,,,,,
4/7/2014 21:00,587,,,,,,,,,,,,,,,,,
4/7/2014 22:00,546,,,,,,,,,,,,,,,,,
4/7/2014 23:00,362,,,,,,,,,,,,,,,,,
4/8/2014 0:00,217,,,,,,,,,,,,,,,,,
4/8/2014 1:00,239,,,,,,,,,,,,,,,,,
4/8/2014 2:00,201,,,,,,,,,,,,,,,,,
4/8/2014 3:00,193,,,,,,,,,,,,,,,,,
4/8/2014 4:00,199,,,,,,,,,,,,,,,,,
4/8/2014 5:00,213,,,,,,,,,,,,,,,,,
4/8/2014 6:00,246,,,,,,,,,,,,,,,,,
4/8/2014 7:00,301,,,,,,,,,,,,,,,,,
4/8/2014 8:00,419,,,,,,,,,,,,,,,,,
4/8/2014 9:00,450,,,,,,,,,,,,,,,,,
4/8/2014 10:00,449,,,,,,,,,,,,,,,,,
4/8/2014 11:00,389,,,,,,,,,,,,,,,,,
4/8/2014 12:00,398,,,,,,,,,,,,,,,,,
4/8/2014 13:00,379,,,,,,,,,,,,,,,,,
4/8/2014 14:00,394,,,,,,,,,,,,,,,,,
4/8/2014 15:00,410,,,,,,,,,,,,,,,,,
4/8/2014 16:00,431,,,,,,,,,,,,,,,,,
4/8/2014 17:00,461,,,,,,,,,,,,,,,,,
4/8/2014 18:00,469,,,,,,,,,,,,,,,,,
4/8/2014 19:00,426,,,,,,,,,,,,,,,,,
4/8/2014 20:00,402,,,,,,,,,,,,,,,,,
4/8/2014 21:00,381,,,,,,,,,,,,,,,,,
4/8/2014 22:00,324,,,,,,,,,,,,,,,,,
4/8/2014 23:00,270,,,,,,,,,,,,,,,,,
4/9/2014 0:00,244,,,,,,,,,,,,,,,,,
4/9/2014 1:00,252,,,,,,,,,,,,,,,,,
4/9/2014 2:00,251,,,,,,,,,,,,,,,,,
4/9/2014 3:00,250,,,,,,,,,,,,,,,,,
4/9/2014 4:00,270,,,,,,,,,,,,,,,,,
4/9/2014 5:00,272,,,,,,,,,,,,,,,,,
4/9/2014 6:00,280,,,,,,,,,,,,,,,,,
4/9/2014 7:00,398,,,,,,,,,,,,,,,,,
4/9/2014 8:00,498,,,,,,,,,,,,,,,,,
4/9/2014 9:00,505,,,,,,,,,,,,,,,,,
4/9/2014 10:00,521,,,,,,,,,,,,,,,,,
4/9/2014 11:00,515,,,,,,,,,,,,,,,,,
4/9/2014 12:00,460,,,,,,,,,,,,,,,,,
4/9/2014 13:00,452,,,,,,,,,,,,,,,,,
4/9/2014 14:00,412,,,,,,,,,,,,,,,,,
4/9/2014 15:00,406,,,,,,,,,,,,,,,,,
4/9/2014 16:00,439,,,,,,,,,,,,,,,,,
4/9/2014 17:00,435,,,,,,,,,,,,,,,,,
4/9/2014 18:00,471,,,,,,,,,,,,,,,,,
4/9/2014 19:00,479,,,,,,,,,,,,,,,,,
4/9/2014 20:00,468,,,,,,,,,,,,,,,,,
4/9/2014 21:00,486,,,,,,,,,,,,,,,,,
4/9/2014 22:00,436,,,,,,,,,,,,,,,,,
4/9/2014 23:00,343,,,,,,,,,,,,,,,,,
4/10/2014 0:00,243,,,,,,,,,,,,,,,,,
4/10/2014 1:00,189,,,,,,,,,,,,,,,,,
4/10/2014 2:00,152,,,,,,,,,,,,,,,,,
4/10/2014 3:00,151,,,,,,,,,,,,,,,,,
4/10/2014 4:00,165,,,,,,,,,,,,,,,,,
4/10/2014 5:00,171,,,,,,,,,,,,,,,,,
4/10/2014 6:00,229,,,,,,,,,,,,,,,,,
4/10/2014 7:00,400,,,,,,,,,,,,,,,,,
4/10/2014 8:00,511,,,,,,,,,,,,,,,,,
4/10/2014 9:00,500,,,,,,,,,,,,,,,,,
4/10/2014 10:00,438,,,,,,,,,,,,,,,,,
4/10/2014 11:00,429,,,,,,,,,,,,,,,,,
4/10/2014 12:00,481,,,,,,,,,,,,,,,,,
4/10/2014 13:00,472,,,,,,,,,,,,,,,,,
4/10/2014 14:00,437,,,,,,,,,,,,,,,,,
4/10/2014 15:00,339,,,,,,,,,,,,,,,,,
4/10/2014 16:00,336,,,,,,,,,,,,,,,,,
4/10/2014 17:00,349,,,,,,,,,,,,,,,,,
4/10/2014 18:00,335,,,,,,,,,,,,,,,,,
4/10/2014 19:00,316,,,,,,,,,,,,,,,,,
4/10/2014 20:00,324,,,,,,,,,,,,,,,,,
4/10/2014 21:00,332,,,,,,,,,,,,,,,,,
4/10/2014 22:00,327,,,,,,,,,,,,,,,,,
4/10/2014 23:00,262,,,,,,,,,,,,,,,,,
4/11/2014 0:00,218,,,,,,,,,,,,,,,,,
4/11/2014 1:00,188,,,,,,,,,,,,,,,,,
4/11/2014 2:00,174,,,,,,,,,,,,,,,,,
4/11/2014 3:00,169,,,,,,,,,,,,,,,,,
4/11/2014 4:00,158,,,,,,,,,,,,,,,,,
4/11/2014 5:00,128,,,,,,,,,,,,,,,,,
4/11/2014 6:00,193,,,,,,,,,,,,,,,,,
4/11/2014 7:00,256,,,,,,,,,,,,,,,,,
4/11/2014 8:00,332,,,,,,,,,,,,,,,,,
4/11/2014 9:00,329,,,,,,,,,,,,,,,,,
4/11/2014 10:00,311,,,,,,,,,,,,,,,,,
4/11/2014 11:00,320,,,,,,,,,,,,,,,,,
4/11/2014 12:00,356,,,,,,,,,,,,,,,,,
4/11/2014 13:00,387,,,,,,,,,,,,,,,,,
4/11/2014 14:00,362,,,,,,,,,,,,,,,,,
4/11/2014 15:00,344,,,,,,,,,,,,,,,,,
4/11/2014 16:00,329,,,,,,,,,,,,,,,,,
4/11/2014 17:00,342,,,,,,,,,,,,,,,,,
4/11/2014 18:00,375,,,,,,,,,,,,,,,,,
4/11/2014 19:00,397,,,,,,,,,,,,,,,,,
4/11/2014 20:00,403,,,,,,,,,,,,,,,,,
4/11/2014 21:00,451,,,,,,,,,,,,,,,,,
4/11/2014 22:00,438,,,,,,,,,,,,,,,,,
4/11/2014 23:00,333,,,,,,,,,,,,,,,,,
4/12/2014 0:00,246,,,,,,,,,,,,,,,,,
4/12/2014 1:00,235,,,,,,,,,,,,,,,,,
4/12/2014 2:00,208,,,,,,,,,,,,,,,,,
4/12/2014 3:00,191,,,,,,,,,,,,,,,,,
4/12/2014 4:00,229,,,,,,,,,,,,,,,,,
4/12/2014 5:00,241,,,,,,,,,,,,,,,,,
4/12/2014 6:00,237,,,,,,,,,,,,,,,,,
4/12/2014 7:00,276,,,,,,,,,,,,,,,,,
4/12/2014 8:00,384,,,,,,,,,,,,,,,,,
4/12/2014 9:00,466,,,,,,,,,,,,,,,,,
4/12/2014 10:00,511,,,,,,,,,,,,,,,,,
4/12/2014 11:00,542,,,,,,,,,,,,,,,,,
4/12/2014 12:00,542,,,,,,,,,,,,,,,,,
4/12/2014 13:00,505,,,,,,,,,,,,,,,,,
4/12/2014 14:00,488,,,,,,,,,,,,,,,,,
4/12/2014 15:00,453,,,,,,,,,,,,,,,,,
4/12/2014 16:00,455,,,,,,,,,,,,,,,,,
4/12/2014 17:00,481,,,,,,,,,,,,,,,,,
4/12/2014 18:00,463,,,,,,,,,,,,,,,,,
4/12/2014 19:00,424,,,,,,,,,,,,,,,,,
4/12/2014 20:00,390,,,,,,,,,,,,,,,,,
4/12/2014 21:00,440,,,,,,,,,,,,,,,,,
4/12/2014 22:00,401,,,,,,,,,,,,,,,,,
4/12/2014 23:00,329,,,,,,,,,,,,,,,,,
4/13/2014 0:00,277,,,,,,,,,,,,,,,,,
4/13/2014 1:00,196,,,,,,,,,,,,,,,,,
4/13/2014 2:00,187,,,,,,,,,,,,,,,,,
4/13/2014 3:00,233,,,,,,,,,,,,,,,,,
4/13/2014 4:00,293,,,,,,,,,,,,,,,,,
4/13/2014 5:00,296,,,,,,,,,,,,,,,,,
4/13/2014 6:00,248,,,,,,,,,,,,,,,,,
4/13/2014 7:00,259,,,,,,,,,,,,,,,,,
4/13/2014 8:00,296,,,,,,,,,,,,,,,,,
4/13/2014 9:00,368,,,,,,,,,,,,,,,,,
4/13/2014 10:00,485,,,,,,,,,,,,,,,,,
4/13/2014 11:00,491,,,,,,,,,,,,,,,,,
4/13/2014 12:00,494,,,,,,,,,,,,,,,,,
4/13/2014 13:00,493,,,,,,,,,,,,,,,,,
4/13/2014 14:00,464,,,,,,,,,,,,,,,,,
4/13/2014 15:00,453,,,,,,,,,,,,,,,,,
4/13/2014 16:00,428,,,,,,,,,,,,,,,,,
4/13/2014 17:00,447,,,,,,,,,,,,,,,,,
4/13/2014 18:00,500,,,,,,,,,,,,,,,,,
4/13/2014 19:00,488,,,,,,,,,,,,,,,,,
4/13/2014 20:00,476,,,,,,,,,,,,,,,,,
4/13/2014 21:00,478,,,,,,,,,,,,,,,,,
4/13/2014 22:00,405,,,,,,,,,,,,,,,,,
4/13/2014 23:00,323,,,,,,,,,,,,,,,,,
4/14/2014 0:00,252,,,,,,,,,,,,,,,,,
4/14/2014 1:00,194,,,,,,,,,,,,,,,,,
4/14/2014 2:00,193,,,,,,,,,,,,,,,,,
4/14/2014 3:00,187,,,,,,,,,,,,,,,,,
4/14/2014 4:00,177,,,,,,,,,,,,,,,,,
4/14/2014 5:00,179,,,,,,,,,,,,,,,,,
4/14/2014 6:00,191,,,,,,,,,,,,,,,,,
4/14/2014 7:00,270,,,,,,,,,,,,,,,,,
4/14/2014 8:00,344,,,,,,,,,,,,,,,,,
4/14/2014 9:00,328,,,,,,,,,,,,,,,,,
4/14/2014 10:00,335,,,,,,,,,,,,,,,,,
4/14/2014 11:00,359,,,,,,,,,,,,,,,,,
4/14/2014 12:00,304,,,,,,,,,,,,,,,,,
4/14/2014 13:00,276,,,,,,,,,,,,,,,,,
4/14/2014 14:00,263,,,,,,,,,,,,,,,,,
4/14/2014 15:00,232,,,,,,,,,,,,,,,,,
4/14/2014 16:00,203,,,,,,,,,,,,,,,,,
4/14/2014 17:00,198,,,,,,,,,,,,,,,,,
4/14/2014 18:00,191,,,,,,,,,,,,,,,,,
4/14/2014 19:00,199,,,,,,,,,,,,,,,,,
4/14/2014 20:00,196,,,,,,,,,,,,,,,,,
4/14/2014 21:00,246,,,,,,,,,,,,,,,,,
4/14/2014 22:00,226,,,,,,,,,,,,,,,,,
4/14/2014 23:00,156,,,,,,,,,,,,,,,,,
4/15/2014 0:00,125,,,,,,,,,,,,,,,,,
4/15/2014 1:00,143,,,,,,,,,,,,,,,,,
4/15/2014 2:00,108,,,,,,,,,,,,,,,,,
4/15/2014 3:00,125,,,,,,,,,,,,,,,,,
4/15/2014 4:00,178,,,,,,,,,,,,,,,,,
4/15/2014 5:00,170,,,,,,,,,,,,,,,,,
4/15/2014 6:00,211,,,,,,,,,,,,,,,,,
4/15/2014 7:00,265,,,,,,,,,,,,,,,,,
4/15/2014 8:00,348,,,,,,,,,,,,,,,,,
4/15/2014 9:00,363,,,,,,,,,,,,,,,,,
4/15/2014 10:00,349,,,,,,,,,,,,,,,,,
4/15/2014 11:00,350,,,,,,,,,,,,,,,,,
4/15/2014 12:00,360,,,,,,,,,,,,,,,,,
4/15/2014 13:00,346,,,,,,,,,,,,,,,,,
4/15/2014 14:00,319,,,,,,,,,,,,,,,,,
4/15/2014 15:00,325,,,,,,,,,,,,,,,,,
4/15/2014 16:00,340,,,,,,,,,,,,,,,,,
4/15/2014 17:00,369,,,,,,,,,,,,,,,,,
4/15/2014 18:00,334,,,,,,,,,,,,,,,,,
4/15/2014 19:00,326,,,,,,,,,,,,,,,,,
4/15/2014 20:00,347,,,,,,,,,,,,,,,,,
4/15/2014 21:00,356,,,,,,,,,,,,,,,,,
4/15/2014 22:00,333,,,,,,,,,,,,,,,,,
4/15/2014 23:00,269,,,,,,,,,,,,,,,,,
4/16/2014 0:00,236,,,,,,,,,,,,,,,,,
4/16/2014 1:00,222,,,,,,,,,,,,,,,,,
4/16/2014 2:00,217,,,,,,,,,,,,,,,,,
4/16/2014 3:00,221,,,,,,,,,,,,,,,,,
4/16/2014 4:00,222,,,,,,,,,,,,,,,,,
4/16/2014 5:00,219,,,,,,,,,,,,,,,,,
4/16/2014 6:00,254,,,,,,,,,,,,,,,,,
4/16/2014 7:00,329,,,,,,,,,,,,,,,,,
4/16/2014 8:00,475,,,,,,,,,,,,,,,,,
4/16/2014 9:00,461,,,,,,,,,,,,,,,,,
4/16/2014 10:00,496,,,,,,,,,,,,,,,,,
4/16/2014 11:00,444,,,,,,,,,,,,,,,,,
4/16/2014 12:00,412,,,,,,,,,,,,,,,,,
4/16/2014 13:00,465,,,,,,,,,,,,,,,,,
4/16/2014 14:00,461,,,,,,,,,,,,,,,,,
4/16/2014 15:00,377,,,,,,,,,,,,,,,,,
4/16/2014 16:00,357,,,,,,,,,,,,,,,,,
4/16/2014 17:00,364,,,,,,,,,,,,,,,,,
4/16/2014 18:00,363,,,,,,,,,,,,,,,,,
4/16/2014 19:00,335,,,,,,,,,,,,,,,,,
4/16/2014 20:00,351,,,,,,,,,,,,,,,,,
4/16/2014 21:00,434,,,,,,,,,,,,,,,,,
4/16/2014 22:00,487,,,,,,,,,,,,,,,,,
4/16/2014 23:00,502,,,,,,,,,,,,,,,,,
4/17/2014 0:00,431,,,,,,,,,,,,,,,,,
4/17/2014 1:00,389,,,,,,,,,,,,,,,,,
4/17/2014 2:00,351,,,,,,,,,,,,,,,,,
4/17/2014 3:00,346,,,,,,,,,,,,,,,,,
4/17/2014 4:00,330,,,,,,,,,,,,,,,,,
4/17/2014 5:00,348,,,,,,,,,,,,,,,,,
4/17/2014 6:00,413,,,,,,,,,,,,,,,,,
4/17/2014 7:00,477,,,,,,,,,,,,,,,,,
4/17/2014 8:00,509,,,,,,,,,,,,,,,,,
4/17/2014 9:00,451,,,,,,,,,,,,,,,,,
4/17/2014 10:00,427,,,,,,,,,,,,,,,,,
4/17/2014 11:00,431,,,,,,,,,,,,,,,,,
4/17/2014 12:00,449,,,,,,,,,,,,,,,,,
4/17/2014 13:00,407,,,,,,,,,,,,,,,,,
4/17/2014 14:00,369,,,,,,,,,,,,,,,,,
4/17/2014 15:00,346,,,,,,,,,,,,,,,,,
4/17/2014 16:00,341,,,,,,,,,,,,,,,,,
4/17/2014 17:00,344,,,,,,,,,,,,,,,,,
4/17/2014 18:00,336,,,,,,,,,,,,,,,,,
4/17/2014 19:00,308,,,,,,,,,,,,,,,,,
4/17/2014 20:00,304,,,,,,,,,,,,,,,,,
4/17/2014 21:00,405,,,,,,,,,,,,,,,,,
4/17/2014 22:00,404,,,,,,,,,,,,,,,,,
4/17/2014 23:00,337,,,,,,,,,,,,,,,,,
4/18/2014 0:00,317,,,,,,,,,,,,,,,,,
4/18/2014 1:00,287,,,,,,,,,,,,,,,,,
4/18/2014 2:00,290,,,,,,,,,,,,,,,,,
4/18/2014 3:00,287,,,,,,,,,,,,,,,,,
4/18/2014 4:00,254,,,,,,,,,,,,,,,,,
4/18/2014 5:00,250,,,,,,,,,,,,,,,,,
4/18/2014 6:00,285,,,,,,,,,,,,,,,,,
4/18/2014 7:00,340,,,,,,,,,,,,,,,,,
4/18/2014 8:00,350,,,,,,,,,,,,,,,,,
4/18/2014 9:00,368,,,,,,,,,,,,,,,,,
4/18/2014 10:00,397,,,,,,,,,,,,,,,,,
4/18/2014 11:00,462,,,,,,,,,,,,,,,,,
4/18/2014 12:00,420,,,,,,,,,,,,,,,,,
4/18/2014 13:00,392,,,,,,,,,,,,,,,,,
4/18/2014 14:00,337,,,,,,,,,,,,,,,,,
4/18/2014 15:00,292,,,,,,,,,,,,,,,,,
4/18/2014 16:00,291,,,,,,,,,,,,,,,,,
4/18/2014 17:00,296,,,,,,,,,,,,,,,,,
4/18/2014 18:00,297,,,,,,,,,,,,,,,,,
4/18/2014 19:00,296,,,,,,,,,,,,,,,,,
4/18/2014 20:00,300,,,,,,,,,,,,,,,,,
4/18/2014 21:00,333,,,,,,,,,,,,,,,,,
4/18/2014 22:00,305,,,,,,,,,,,,,,,,,
4/18/2014 23:00,260,,,,,,,,,,,,,,,,,
4/19/2014 0:00,231,,,,,,,,,,,,,,,,,
4/19/2014 1:00,183,,,,,,,,,,,,,,,,,
4/19/2014 2:00,184,,,,,,,,,,,,,,,,,
4/19/2014 3:00,205,,,,,,,,,,,,,,,,,
4/19/2014 4:00,219,,,,,,,,,,,,,,,,,
4/19/2014 5:00,220,,,,,,,,,,,,,,,,,
4/19/2014 6:00,237,,,,,,,,,,,,,,,,,
4/19/2014 7:00,273,,,,,,,,,,,,,,,,,
4/19/2014 8:00,330,,,,,,,,,,,,,,,,,
4/19/2014 9:00,409,,,,,,,,,,,,,,,,,
4/19/2014 10:00,426,,,,,,,,,,,,,,,,,
4/19/2014 11:00,428,,,,,,,,,,,,,,,,,
4/19/2014 12:00,419,,,,,,,,,,,,,,,,,
4/19/2014 13:00,377,,,,,,,,,,,,,,,,,
4/19/2014 14:00,336,,,,,,,,,,,,,,,,,
4/19/2014 15:00,340,,,,,,,,,,,,,,,,,
4/19/2014 16:00,302,,,,,,,,,,,,,,,,,
4/19/2014 17:00,302,,,,,,,,,,,,,,,,,
4/19/2014 18:00,357,,,,,,,,,,,,,,,,,
4/19/2014 19:00,344,,,,,,,,,,,,,,,,,
4/19/2014 20:00,359,,,,,,,,,,,,,,,,,
4/19/2014 21:00,319,,,,,,,,,,,,,,,,,
4/19/2014 22:00,271,,,,,,,,,,,,,,,,,
4/19/2014 23:00,232,,,,,,,,,,,,,,,,,
4/20/2014 0:00,177,,,,,,,,,,,,,,,,,
4/20/2014 1:00,124,,,,,,,,,,,,,,,,,
4/20/2014 2:00,87,,,,,,,,,,,,,,,,,
4/20/2014 3:00,89,,,,,,,,,,,,,,,,,
4/20/2014 4:00,121,,,,,,,,,,,,,,,,,
4/20/2014 5:00,139,,,,,,,,,,,,,,,,,
4/20/2014 6:00,146,,,,,,,,,,,,,,,,,
4/20/2014 7:00,182,,,,,,,,,,,,,,,,,
4/20/2014 8:00,217,,,,,,,,,,,,,,,,,
4/20/2014 9:00,284,,,,,,,,,,,,,,,,,
4/20/2014 10:00,355,,,,,,,,,,,,,,,,,
4/20/2014 11:00,384,,,,,,,,,,,,,,,,,
4/20/2014 12:00,383,,,,,,,,,,,,,,,,,
4/20/2014 13:00,363,,,,,,,,,,,,,,,,,
4/20/2014 14:00,325,,,,,,,,,,,,,,,,,
4/20/2014 15:00,281,,,,,,,,,,,,,,,,,
4/20/2014 16:00,269,,,,,,,,,,,,,,,,,
4/20/2014 17:00,271,,,,,,,,,,,,,,,,,
4/20/2014 18:00,251,,,,,,,,,,,,,,,,,
4/20/2014 19:00,230,,,,,,,,,,,,,,,,,
4/20/2014 20:00,249,,,,,,,,,,,,,,,,,
4/20/2014 21:00,303,,,,,,,,,,,,,,,,,
4/20/2014 22:00,319,,,,,,,,,,,,,,,,,
4/20/2014 23:00,276,,,,,,,,,,,,,,,,,
4/21/2014 0:00,204,,,,,,,,,,,,,,,,,
4/21/2014 1:00,154,,,,,,,,,,,,,,,,,
4/21/2014 2:00,151,,,,,,,,,,,,,,,,,
4/21/2014 3:00,141,,,,,,,,,,,,,,,,,
4/21/2014 4:00,128,,,,,,,,,,,,,,,,,
4/21/2014 5:00,141,,,,,,,,,,,,,,,,,
4/21/2014 6:00,157,,,,,,,,,,,,,,,,,
4/21/2014 7:00,218,,,,,,,,,,,,,,,,,
4/21/2014 8:00,279,,,,,,,,,,,,,,,,,
4/21/2014 9:00,325,,,,,,,,,,,,,,,,,
4/21/2014 10:00,369,,,,,,,,,,,,,,,,,
4/21/2014 11:00,339,,,,,,,,,,,,,,,,,
4/21/2014 12:00,293,,,,,,,,,,,,,,,,,
4/21/2014 13:00,264,,,,,,,,,,,,,,,,,
4/21/2014 14:00,243,,,,,,,,,,,,,,,,,
4/21/2014 15:00,230,,,,,,,,,,,,,,,,,
4/21/2014 16:00,237,,,,,,,,,,,,,,,,,
4/21/2014 17:00,262,,,,,,,,,,,,,,,,,
4/21/2014 18:00,262,,,,,,,,,,,,,,,,,
4/21/2014 19:00,257,,,,,,,,,,,,,,,,,
4/21/2014 20:00,264,,,,,,,,,,,,,,,,,
4/21/2014 21:00,276,,,,,,,,,,,,,,,,,
4/21/2014 22:00,240,,,,,,,,,,,,,,,,,
4/21/2014 23:00,163,,,,,,,,,,,,,,,,,
4/22/2014 0:00,135,,,,,,,,,,,,,,,,,
4/22/2014 1:00,83,,,,,,,,,,,,,,,,,
4/22/2014 2:00,66,,,,,,,,,,,,,,,,,
4/22/2014 3:00,62,,,,,,,,,,,,,,,,,
4/22/2014 4:00,68,,,,,,,,,,,,,,,,,
4/22/2014 5:00,71,,,,,,,,,,,,,,,,,
4/22/2014 6:00,91,,,,,,,,,,,,,,,,,
4/22/2014 7:00,178,,,,,,,,,,,,,,,,,
4/22/2014 8:00,294,,,,,,,,,,,,,,,,,
4/22/2014 9:00,331,,,,,,,,,,,,,,,,,
4/22/2014 10:00,346,,,,,,,,,,,,,,,,,
4/22/2014 11:00,341,,,,,,,,,,,,,,,,,
4/22/2014 12:00,336,,,,,,,,,,,,,,,,,
4/22/2014 13:00,322,,,,,,,,,,,,,,,,,
4/22/2014 14:00,310,,,,,,,,,,,,,,,,,
4/22/2014 15:00,290,,,,,,,,,,,,,,,,,
4/22/2014 16:00,283,,,,,,,,,,,,,,,,,
4/22/2014 17:00,305,,,,,,,,,,,,,,,,,
4/22/2014 18:00,313,,,,,,,,,,,,,,,,,
4/22/2014 19:00,277,,,,,,,,,,,,,,,,,
4/22/2014 20:00,294,,,,,,,,,,,,,,,,,
4/22/2014 21:00,329,,,,,,,,,,,,,,,,,
4/22/2014 22:00,285,,,,,,,,,,,,,,,,,
4/22/2014 23:00,204,,,,,,,,,,,,,,,,,
4/23/2014 0:00,190,,,,,,,,,,,,,,,,,
4/23/2014 1:00,153,,,,,,,,,,,,,,,,,
4/23/2014 2:00,157,,,,,,,,,,,,,,,,,
4/23/2014 3:00,160,,,,,,,,,,,,,,,,,
4/23/2014 4:00,147,,,,,,,,,,,,,,,,,
4/23/2014 5:00,177,,,,,,,,,,,,,,,,,
4/23/2014 6:00,203,,,,,,,,,,,,,,,,,
4/23/2014 7:00,269,,,,,,,,,,,,,,,,,
4/23/2014 8:00,322,,,,,,,,,,,,,,,,,
4/23/2014 9:00,334,,,,,,,,,,,,,,,,,
4/23/2014 10:00,357,,,,,,,,,,,,,,,,,
4/23/2014 11:00,359,,,,,,,,,,,,,,,,,
4/23/2014 12:00,356,,,,,,,,,,,,,,,,,
4/23/2014 13:00,320,,,,,,,,,,,,,,,,,
4/23/2014 14:00,298,,,,,,,,,,,,,,,,,
4/23/2014 15:00,295,,,,,,,,,,,,,,,,,
4/23/2014 16:00,305,,,,,,,,,,,,,,,,,
4/23/2014 17:00,320,,,,,,,,,,,,,,,,,
4/23/2014 18:00,346,,,,,,,,,,,,,,,,,
4/23/2014 19:00,334,,,,,,,,,,,,,,,,,
4/23/2014 20:00,331,,,,,,,,,,,,,,,,,
4/23/2014 21:00,342,,,,,,,,,,,,,,,,,
4/23/2014 22:00,332,,,,,,,,,,,,,,,,,
4/23/2014 23:00,279,,,,,,,,,,,,,,,,,
4/24/2014 0:00,218,,,,,,,,,,,,,,,,,
4/24/2014 1:00,159,,,,,,,,,,,,,,,,,
4/24/2014 2:00,146,,,,,,,,,,,,,,,,,
4/24/2014 3:00,148,,,,,,,,,,,,,,,,,
4/24/2014 4:00,150,,,,,,,,,,,,,,,,,
4/24/2014 5:00,156,,,,,,,,,,,,,,,,,
4/24/2014 6:00,181,,,,,,,,,,,,,,,,,
4/24/2014 7:00,252,,,,,,,,,,,,,,,,,
4/24/2014 8:00,321,,,,,,,,,,,,,,,,,
4/24/2014 9:00,336,,,,,,,,,,,,,,,,,
4/24/2014 10:00,311,,,,,,,,,,,,,,,,,
4/24/2014 11:00,346,,,,,,,,,,,,,,,,,
4/24/2014 12:00,282,,,,,,,,,,,,,,,,,
4/24/2014 13:00,276,,,,,,,,,,,,,,,,,
4/24/2014 14:00,268,,,,,,,,,,,,,,,,,
4/24/2014 15:00,254,,,,,,,,,,,,,,,,,
4/24/2014 16:00,294,,,,,,,,,,,,,,,,,
4/24/2014 17:00,319,,,,,,,,,,,,,,,,,
4/24/2014 18:00,343,,,,,,,,,,,,,,,,,
4/24/2014 19:00,324,,,,,,,,,,,,,,,,,
4/24/2014 20:00,306,,,,,,,,,,,,,,,,,
4/24/2014 21:00,315,,,,,,,,,,,,,,,,,
4/24/2014 22:00,281,,,,,,,,,,,,,,,,,
4/24/2014 23:00,254,,,,,,,,,,,,,,,,,
4/25/2014 0:00,245,,,,,,,,,,,,,,,,,
4/25/2014 1:00,198,,,,,,,,,,,,,,,,,
4/25/2014 2:00,165,,,,,,,,,,,,,,,,,
4/25/2014 3:00,157,,,,,,,,,,,,,,,,,
4/25/2014 4:00,158,,,,,,,,,,,,,,,,,
4/25/2014 5:00,168,,,,,,,,,,,,,,,,,
4/25/2014 6:00,176,,,,,,,,,,,,,,,,,
4/25/2014 7:00,296,,,,,,,,,,,,,,,,,
4/25/2014 8:00,347,,,,,,,,,,,,,,,,,
4/25/2014 9:00,309,,,,,,,,,,,,,,,,,
4/25/2014 10:00,243,,,,,,,,,,,,,,,,,
4/25/2014 11:00,277,,,,,,,,,,,,,,,,,
4/25/2014 12:00,264,,,,,,,,,,,,,,,,,
4/25/2014 13:00,236,,,,,,,,,,,,,,,,,
4/25/2014 14:00,212,,,,,,,,,,,,,,,,,
4/25/2014 15:00,205,,,,,,,,,,,,,,,,,
4/25/2014 16:00,224,,,,,,,,,,,,,,,,,
4/25/2014 17:00,239,,,,,,,,,,,,,,,,,
4/25/2014 18:00,277,,,,,,,,,,,,,,,,,
4/25/2014 19:00,256,,,,,,,,,,,,,,,,,
4/25/2014 20:00,265,,,,,,,,,,,,,,,,,
4/25/2014 21:00,317,,,,,,,,,,,,,,,,,
4/25/2014 22:00,315,,,,,,,,,,,,,,,,,
4/25/2014 23:00,238,,,,,,,,,,,,,,,,,
4/26/2014 0:00,190,,,,,,,,,,,,,,,,,
4/26/2014 1:00,172,,,,,,,,,,,,,,,,,
4/26/2014 2:00,146,,,,,,,,,,,,,,,,,
4/26/2014 3:00,133,,,,,,,,,,,,,,,,,
4/26/2014 4:00,143,,,,,,,,,,,,,,,,,
4/26/2014 5:00,112,,,,,,,,,,,,,,,,,
4/26/2014 6:00,134,,,,,,,,,,,,,,,,,
4/26/2014 7:00,165,,,,,,,,,,,,,,,,,
4/26/2014 8:00,194,,,,,,,,,,,,,,,,,
4/26/2014 9:00,251,,,,,,,,,,,,,,,,,
4/26/2014 10:00,246,,,,,,,,,,,,,,,,,
4/26/2014 11:00,238,,,,,,,,,,,,,,,,,
4/26/2014 12:00,169,,,,,,,,,,,,,,,,,
4/26/2014 13:00,215,,,,,,,,,,,,,,,,,
4/26/2014 14:00,196,,,,,,,,,,,,,,,,,
4/26/2014 15:00,152,,,,,,,,,,,,,,,,,
4/26/2014 16:00,135,,,,,,,,,,,,,,,,,
4/26/2014 17:00,156,,,,,,,,,,,,,,,,,
4/26/2014 18:00,190,,,,,,,,,,,,,,,,,
4/26/2014 19:00,204,,,,,,,,,,,,,,,,,
4/26/2014 20:00,206,,,,,,,,,,,,,,,,,
4/26/2014 21:00,192,,,,,,,,,,,,,,,,,
4/26/2014 22:00,185,,,,,,,,,,,,,,,,,
4/26/2014 23:00,178,,,,,,,,,,,,,,,,,
4/27/2014 0:00,142,,,,,,,,,,,,,,,,,
4/27/2014 1:00,94,,,,,,,,,,,,,,,,,
4/27/2014 2:00,80,,,,,,,,,,,,,,,,,
4/27/2014 3:00,77,,,,,,,,,,,,,,,,,
4/27/2014 4:00,80,,,,,,,,,,,,,,,,,
4/27/2014 5:00,80,,,,,,,,,,,,,,,,,
4/27/2014 6:00,78,,,,,,,,,,,,,,,,,
4/27/2014 7:00,95,,,,,,,,,,,,,,,,,
4/27/2014 8:00,156,,,,,,,,,,,,,,,,,
4/27/2014 9:00,200,,,,,,,,,,,,,,,,,
4/27/2014 10:00,253,,,,,,,,,,,,,,,,,
4/27/2014 11:00,265,,,,,,,,,,,,,,,,,
4/27/2014 12:00,284,,,,,,,,,,,,,,,,,
4/27/2014 13:00,345,,,,,,,,,,,,,,,,,
4/27/2014 14:00,343,,,,,,,,,,,,,,,,,
4/27/2014 15:00,338,,,,,,,,,,,,,,,,,
4/27/2014 16:00,289,,,,,,,,,,,,,,,,,
4/27/2014 17:00,299,,,,,,,,,,,,,,,,,
4/27/2014 18:00,305,,,,,,,,,,,,,,,,,
4/27/2014 19:00,325,,,,,,,,,,,,,,,,,